Wetbulb
39.95 37.77 33.90 33.04 35.21 37.60 36.92 33.49 32.50 34.59 38.25 35.45 34.41 35.51 39.57 37.15 35.16 36.67 38.88 39.94 44.38 49.52 54.87 54.52 56.59 57.72 58.12 59.29 60.15 60.26 60.38 60.48 61.46 60.37 60.30 59.45 59.85 61.68 62.00 62.37 61.95 61.20 60.02 58.43
35.71 30.61 35.35 38.34 36.50 36.76 34.85 31.90 31.91 34.04 35.45 35.55 33.04 34.88 38.81 36.19 37.31 37.92 38.48 38.63 40.35 43.44 43.93 46.26 45.84 53.47 56.30 58.68 60.01 60.56 60.64 60.90 61.02 61.71 61.38 60.15 60.15 60.35 61.77 62.19 62.04 61.74 60.36 59.17
34.22 34.43 38.64 37.23 34.32 33.51 31.04 30.89 30.89 33.34 33.59 33.25 31.03 31.07 34.61 35.95 35.59 37.51 38.46 39.53 40.35 42.28 43.83 44.56 41.26 42.63 49.63 56.15 57.68 59.80 60.84 60.94 61.42 61.89 59.60 57.65 58.23 58.31 59.88 60.76 61.13 61.23 60.89 59.79
33.64 36.99 36.73 33.45 32.84 34.02 29.63 34.85 35.18 33.09 31.44 27.93 31.57 26.65 31.05 33.94 34.82 34.60 37.33 38.43 41.27 42.62 42.09 42.62 40.70 39.62 40.84 50.44 55.92 58.43 59.78 60.51 61.01 61.26 60.12 59.66 59.86 58.93 59.67 58.32 58.90 58.91 58.98 58.56
32.77 33.39 33.22 32.75 33.67 36.23 33.32 35.35 34.02 31.69 29.25 26.14 25.71 25.78 30.66 30.57 32.19 35.25 37.01 38.90 41.43 43.54 42.86 39.91 39.77 40.47 40.43 42.47 50.07 55.69 58.63 59.73 60.36 60.71 61.15 60.15 59.61 59.83 58.35 56.69 56.98 57.41 57.56 58.63
34.38 35.85 36.08 35.38 35.22 36.55 35.78 33.37 31.07 27.90 27.20 23.39 27.74 26.77 26.59 29.99 35.06 36.99 38.28 39.03 38.98 38.58 38.87 39.15 38.75 38.91 38.94 39.09 43.28 51.15 56.67 58.77 59.28 60.28 60.78 60.02 59.70 58.81 56.85 55.51 57.05 57.59 59.35 59.66
30.98 31.61 33.35 35.84 32.43 32.23 32.42 29.99 22.69 22.05 20.79 22.38 25.30 24.85 32.93 34.68 36.52 38.32 38.61 37.37 37.50 37.60 37.79 36.72 36.24 38.51 39.25 41.04 41.97 46.22 52.19 55.34 58.33 59.60 59.96 59.81 59.98 60.14 58.70 57.49 57.88 58.38 59.10 58.76
29.00 26.65 32.40 35.13 33.55 30.58 30.60 30.91 23.56 16.89 17.72 21.75 25.05 23.82 30.15 36.39 40.38 38.20 37.04 36.19 36.21 38.26 38.97 38.09 37.68 39.20 41.38 42.62 43.39 43.96 45.90 49.07 51.93 58.58 59.91 60.54 60.43 60.31 59.65 58.08 58.07 58.58 58.78 57.86
29.14 27.76 32.82 35.16 36.13 37.59 30.72 27.72 32.66 24.55 13.38 18.75 23.43 26.34 32.29 36.73 35.91 36.45 36.01 35.51 36.29 38.00 38.92 38.74 38.69 40.12 42.69 44.26 44.95 45.41 45.02 44.71 43.92 44.45 46.29 50.82 55.84 59.07 59.69 59.29 59.42 59.96 58.75 56.40
32.64 28.00 32.60 34.64 36.47 35.25 33.37 36.19 29.29 25.10 15.61 14.86 21.33 22.97 26.73 31.45 34.60 35.45 36.00 35.54 35.64 36.99 38.76 38.63 39.51 41.09 42.69 43.70 44.97 45.15 45.23 45.23 45.09 44.23 42.58 41.64 41.91 46.38 54.17 56.64 56.47 56.16 55.09 53.06
34.02 31.41 28.72 33.52 32.27 30.30 31.01 31.08 29.58 30.71 25.82 19.84 15.61 23.75 29.97 35.32 34.13 35.51 35.77 36.16 36.09 37.09 38.10 38.71 39.76 41.01 41.82 43.09 44.59 45.19 45.67 46.00 45.49 45.36 45.29 45.26 47.20 44.89 47.39 53.64 54.23 53.59 52.55 53.02
34.25 31.21 25.95 28.67 33.39 34.62 34.56 33.81 34.40 29.12 22.40 22.98 22.59 23.94 32.34 31.71 33.50 35.21 35.67 36.48 36.53 36.72 37.85 38.71 39.41 40.11 40.38 41.89 43.57 44.52 44.37 44.74 44.99 45.13 45.14 47.40 49.04 49.89 51.06 51.66 51.67 51.57 50.29 49.68
35.45 28.97 22.89 26.61 31.43 31.99 30.97 30.44 34.23 30.49 27.90 23.86 20.99 25.99 32.84 31.12 33.92 33.69 34.71 36.25 35.98 35.05 35.87 37.08 37.71 38.78 39.68 40.50 42.03 42.72 42.92 43.82 44.55 44.76 47.99 48.37 48.19 49.37 49.73 49.21 48.45 47.89 47.13 46.22
40.20 30.74 30.07 26.27 28.72 30.67 29.16 30.11 31.21 31.50 25.20 25.91 27.43 28.02 29.91 34.78 33.78 34.82 35.80 35.48 35.28 35.10 35.09 36.25 37.18 38.06 38.76 39.40 40.09 41.35 41.97 43.04 44.71 47.16 48.16 48.32 48.36 48.07 47.52 46.35 45.46 44.85 44.46 43.52
37.30 30.46 27.83 28.16 29.18 31.68 30.57 30.62 31.55 31.43 33.70 29.25 33.01 30.48 34.51 33.33 35.21 37.47 35.82 36.45 36.88 36.89 35.99 35.97 36.86 37.69 38.21 38.33 38.40 40.25 41.96 42.41 43.82 46.55 47.09 46.58 45.84 45.00 43.92 42.69 41.90 40.55 39.52 38.71
34.20 23.33 27.87 24.32 28.98 29.18 27.91 31.06 32.66 33.82 34.47 33.85 32.51 29.18 34.14 36.34 32.20 33.70 35.45 36.66 37.85 38.35 38.45 37.70 36.85 36.95 37.89 38.80 39.36 39.28 40.36 41.43 42.88 43.51 44.14 42.21 41.78 40.02 38.91 37.59 36.62 35.97 35.88 35.91
31.49 27.90 24.77 18.48 27.77 26.72 25.27 29.80 31.58 33.33 35.04 35.08 29.10 34.59 35.96 34.70 34.35 35.48 36.25 36.00 35.87 36.87 38.17 38.02 38.51 38.78 37.90 38.89 39.75 38.95 38.66 40.24 41.42 40.91 38.50 37.78 38.11 37.29 36.69 35.81 35.43 34.69 34.57 33.15
32.93 32.43 27.81 22.83 24.78 18.49 30.29 32.57 35.91 33.70 35.17 36.68 37.06 33.86 35.26 35.85 38.48 38.47 37.21 36.52 35.85 36.14 37.74 37.76 37.45 37.92 38.03 37.86 38.13 37.84 38.63 38.43 38.81 40.69 38.38 37.12 36.79 35.77 34.65 34.26 33.62 32.34 28.74 29.71
35.44 32.00 25.60 24.95 16.21 26.87 31.50 30.87 29.27 29.40 32.24 36.18 35.18 36.60 34.47 33.63 32.68 34.29 35.35 35.93 38.49 38.82 38.66 38.56 38.63 37.83 36.85 37.42 37.54 37.79 36.05 36.32 37.07 39.03 37.00 35.17 35.33 34.13 33.15 33.39 31.67 25.96 28.12 26.67
33.52 35.07 30.98 24.72 20.06 20.98 27.75 33.25 32.97 33.86 28.57 36.19 36.32 35.79 35.32 33.06 32.34 38.71 37.88 37.57 36.55 36.78 36.40 36.28 35.43 36.24 36.31 36.30 35.72 35.82 35.48 35.58 35.93 34.63 34.71 32.85 32.10 33.09 31.87 29.99 28.11 24.29 25.57 26.43
29.66 30.80 28.20 27.04 25.23 22.87 29.56 30.68 35.74 27.48 30.27 35.18 33.95 36.45 36.90 33.99 38.29 36.76 35.76 34.50 33.76 34.69 34.76 34.17 34.76 35.67 35.99 33.94 34.66 34.90 33.43 35.30 34.99 33.14 31.16 29.15 28.59 30.03 28.99 26.30 23.32 25.79 26.03 25.74
29.14 28.43 28.44 27.53 25.01 23.14 30.77 29.35 31.63 34.63 33.19 33.77 34.12 32.66 33.50 32.48 32.73 33.76 34.92 34.43 35.32 34.58 34.18 33.93 33.41 33.00 31.95 32.48 34.58 33.85 33.91 32.46 30.91 29.06 28.22 26.85 25.61 27.47 27.60 26.79 24.84 24.51 25.40 24.28
27.60 31.20 27.75 30.89 29.21 32.56 30.59 30.96 32.96 34.09 35.04 34.27 35.08 35.27 34.53 34.04 32.03 32.57 33.68 32.75 32.55 32.10 32.11 30.88 30.87 29.96 28.79 30.56 29.82 29.06 28.51 28.71 26.93 26.52 24.68 23.51 24.12 25.70 26.46 26.57 25.23 24.43 23.62 24.99
29.30 30.70 29.36 30.36 30.79 31.72 31.79 32.91 33.40 33.11 33.52 34.17 33.42 33.82 33.45 33.97 32.94 31.75 31.81 31.36 30.05 29.01 28.36 26.50 24.88 24.73 24.18 23.10 26.09 26.25 26.75 26.20 27.27 24.94 23.24 22.76 24.05 22.28 21.84 24.07 25.28 25.39 24.51 25.56
30.44 31.94 27.08 27.35 28.20 30.82 31.62 32.91 33.49 32.00 32.54 32.28 31.61 31.43 31.81 32.08 30.12 30.39 30.17 29.29 28.43 27.20 23.75 22.98 23.52 22.99 20.65 20.38 20.49 20.25 23.12 25.11 24.10 22.44 21.85 21.76 22.52 23.36 21.16 21.64 24.21 27.08 26.28 28.56
29.48 29.78 31.99 32.15 31.67 33.08 32.50 32.34 32.11 31.53 29.79 30.68 31.11 29.55 28.85 30.37 30.30 29.05 28.36 27.60 25.97 22.53 20.75 20.64 19.04 19.91 16.90 16.70 16.35 16.18 17.88 22.65 23.52 21.63 21.95 22.64 22.90 21.65 22.30 24.22 24.03 27.46 27.26 28.52
MSLP
1015.49 1016.09 1016.11 1016.68 1016.92 1017.03 1017.15 1017.65 1017.30 1016.89 1016.68 1016.95 1016.91 1016.75 1016.09 1016.46 1016.92 1017.30 1017.55 1017.42 1017.32 1017.14 1016.27 1016.90 1017.26 1017.55 1018.03 1018.29 1018.41 1018.82 1019.25 1019.52 1020.12 1020.63 1021.09 1021.53 1021.56 1021.86 1022.07 1022.19 1022.44 1022.85 1023.08 1023.38
1016.31 1016.26 1016.73 1016.83 1017.06 1017.21 1017.35 1017.65 1017.46 1017.25 1017.11 1017.10 1017.20 1017.08 1015.99 1016.24 1016.52 1016.49 1016.56 1016.83 1016.58 1016.50 1016.36 1016.23 1016.81 1017.14 1017.63 1017.47 1017.74 1018.18 1018.32 1018.89 1019.16 1019.69 1020.10 1020.54 1020.93 1021.18 1021.24 1021.44 1021.98 1022.17 1022.57 1022.95
1015.86 1016.07 1016.39 1016.85 1017.28 1017.51 1017.65 1017.69 1017.74 1017.68 1017.71 1017.65 1017.71 1017.24 1016.35 1015.68 1015.59 1015.70 1015.73 1015.54 1015.67 1015.64 1015.41 1015.50 1016.00 1016.30 1016.44 1017.00 1016.91 1017.08 1017.43 1017.92 1018.28 1018.89 1019.54 1020.14 1020.53 1020.80 1021.18 1021.13 1021.48 1021.65 1021.88 1022.19
1015.92 1015.86 1016.06 1016.84 1017.24 1017.40 1017.77 1017.57 1017.67 1018.12 1018.46 1018.42 1018.09 1017.08 1016.05 1015.52 1015.42 1015.11 1014.95 1015.05 1014.52 1014.27 1014.48 1014.83 1015.18 1015.62 1015.67 1015.71 1015.94 1016.38 1016.70 1017.12 1017.56 1018.11 1018.78 1019.19 1019.71 1019.90 1020.14 1020.35 1020.73 1021.18 1021.28 1021.69
1015.02 1015.42 1016.19 1016.62 1016.71 1017.24 1017.66 1017.63 1018.04 1018.73 1019.11 1019.17 1018.78 1018.51 1015.46 1015.15 1014.88 1014.17 1013.93 1013.72 1013.35 1013.03 1013.56 1014.00 1014.58 1014.73 1014.70 1015.09 1015.31 1015.58 1016.02 1016.49 1016.94 1017.31 1017.66 1018.32 1018.94 1019.18 1019.61 1020.22 1020.62 1020.90 1020.93 1021.18
1014.84 1014.88 1015.00 1015.31 1016.21 1016.76 1017.58 1018.19 1019.04 1019.81 1020.24 1019.76 1018.86 1018.67 1015.72 1014.67 1013.53 1012.98 1012.44 1012.18 1012.51 1013.23 1013.46 1013.71 1014.04 1014.46 1014.62 1014.90 1015.33 1015.60 1015.79 1016.06 1016.49 1016.86 1017.20 1017.74 1018.17 1018.60 1019.03 1019.32 1019.99 1020.34 1020.46 1020.50
1014.82 1015.06 1014.84 1015.09 1016.36 1017.02 1017.38 1018.71 1020.21 1021.08 1021.30 1020.11 1019.38 1018.92 1014.95 1013.57 1012.71 1011.75 1011.36 1011.65 1012.29 1012.83 1013.35 1013.74 1014.07 1014.38 1014.67 1014.94 1015.26 1015.37 1015.75 1015.93 1016.26 1016.45 1016.76 1017.07 1017.37 1017.98 1018.39 1018.76 1019.11 1019.58 1019.84 1019.86
1014.08 1015.15 1014.41 1014.29 1014.75 1015.65 1017.15 1017.96 1018.95 1020.72 1021.59 1020.63 1019.72 1017.37 1014.01 1012.45 1011.65 1011.51 1011.61 1011.68 1012.28 1012.83 1013.25 1013.65 1014.29 1014.33 1014.52 1014.99 1015.05 1015.24 1015.52 1015.85 1016.09 1016.08 1016.30 1016.77 1017.14 1017.64 1017.88 1018.33 1018.75 1019.11 1019.34 1019.34
1012.69 1013.77 1013.69 1013.80 1013.96 1014.50 1016.54 1017.19 1017.81 1019.84 1021.90 1021.33 1018.78 1016.46 1014.41 1012.45 1011.67 1011.44 1011.60 1011.87 1012.05 1012.84 1013.13 1013.69 1014.17 1014.52 1014.97 1015.22 1015.38 1015.57 1015.72 1015.84 1016.19 1016.57 1016.70 1016.76 1016.93 1017.31 1017.51 1017.87 1018.34 1018.65 1018.91 1019.13
1011.39 1013.42 1013.87 1013.94 1013.81 1014.35 1014.41 1015.87 1017.38 1018.77 1020.47 1020.73 1018.49 1016.97 1014.41 1012.43 1011.35 1011.26 1011.52 1011.76 1012.11 1012.59 1013.27 1013.49 1014.01 1014.80 1014.99 1015.40 1015.74 1015.90 1015.90 1016.07 1016.55 1016.75 1016.82 1016.99 1017.26 1017.41 1017.61 1017.75 1018.16 1018.59 1018.85 1019.13
1011.05 1011.91 1014.49 1014.10 1013.46 1013.37 1014.46 1015.01 1015.93 1016.86 1018.25 1018.45 1018.03 1015.33 1012.87 1011.32 1011.58 1011.13 1011.07 1011.78 1012.12 1012.26 1012.52 1013.39 1014.37 1014.80 1015.18 1015.61 1015.80 1015.83 1016.02 1016.27 1016.60 1016.82 1016.80 1016.94 1017.29 1017.34 1017.58 1017.80 1018.06 1018.54 1018.81 1019.14
1010.96 1012.04 1014.12 1013.95 1013.54 1013.35 1013.10 1013.43 1014.25 1015.53 1017.09 1017.67 1017.14 1013.72 1011.72 1011.50 1011.43 1011.29 1011.64 1011.73 1011.91 1012.41 1012.94 1013.52 1014.25 1014.96 1015.50 1015.70 1015.88 1016.08 1016.40 1016.47 1016.63 1016.65 1016.74 1017.04 1017.18 1017.25 1017.42 1017.68 1018.08 1018.30 1018.65 1019.00
1010.52 1011.48 1013.80 1014.74 1014.28 1013.62 1013.22 1013.28 1013.17 1014.21 1015.53 1015.68 1015.90 1012.21 1011.04 1011.12 1010.89 1010.84 1011.40 1011.55 1011.66 1012.33 1013.21 1013.88 1014.58 1015.06 1015.32 1015.72 1016.08 1016.26 1016.26 1016.25 1016.56 1016.87 1016.93 1017.21 1017.38 1017.39 1017.56 1018.05 1018.32 1018.69 1019.02 1019.51
1009.55 1011.11 1011.65 1012.21 1011.50 1012.97 1013.64 1013.30 1013.63 1014.20 1015.03 1014.08 1012.13 1011.71 1011.20 1010.51 1010.31 1010.74 1011.00 1011.40 1012.03 1012.47 1012.99 1013.67 1014.43 1014.90 1015.18 1015.57 1015.79 1015.83 1016.04 1016.27 1016.63 1016.76 1017.01 1017.28 1017.42 1017.62 1017.98 1018.50 1018.89 1019.27 1019.54 1020.09
1009.45 1010.83 1011.91 1012.29 1012.11 1012.14 1012.15 1012.40 1012.97 1013.17 1011.12 1012.30 1007.96 1010.78 1010.54 1010.27 1010.04 1009.77 1010.56 1011.29 1012.02 1012.52 1012.86 1013.17 1013.81 1014.47 1014.72 1014.94 1015.38 1015.63 1015.80 1016.26 1016.51 1016.90 1017.11 1017.31 1017.50 1017.79 1018.44 1018.96 1019.41 1019.77 1020.18 1020.63
1009.87 1011.25 1012.38 1013.30 1012.90 1012.35 1012.46 1012.04 1011.71 1010.66 1010.36 1009.79 1009.82 1009.36 1009.58 1009.79 1009.88 1010.48 1010.91 1011.61 1011.77 1011.91 1012.07 1012.57 1013.19 1013.88 1014.13 1014.30 1014.57 1015.13 1015.64 1016.20 1016.47 1016.81 1017.06 1017.45 1017.88 1018.47 1018.97 1019.36 1019.78 1020.24 1020.62 1021.05
1010.35 1011.67 1013.02 1014.37 1013.92 1013.04 1012.64 1009.52 1010.50 1009.89 1009.67 1008.51 1008.97 1008.48 1009.54 1009.80 1010.15 1010.19 1010.54 1010.91 1011.02 1011.30 1011.38 1011.44 1012.04 1012.51 1012.88 1013.29 1013.85 1014.72 1015.42 1015.89 1016.30 1016.73 1017.20 1017.78 1018.20 1018.76 1019.14 1019.46 1019.94 1020.48 1020.85 1021.22
1009.61 1011.60 1012.74 1014.37 1014.40 1013.11 1009.61 1008.87 1008.72 1009.07 1008.12 1007.83 1007.67 1008.41 1008.68 1009.11 1009.13 1009.26 1009.47 1009.73 1010.17 1010.76 1010.48 1010.62 1011.27 1011.56 1011.92 1012.70 1013.37 1014.03 1014.71 1015.29 1015.91 1016.43 1017.00 1017.68 1018.34 1018.89 1019.35 1019.77 1020.03 1020.40 1020.91 1021.31
1010.20 1011.28 1012.84 1013.92 1014.28 1011.73 1009.50 1008.95 1009.07 1009.08 1006.64 1007.10 1007.33 1008.48 1008.81 1009.18 1009.59 1008.80 1009.20 1009.12 1009.25 1009.22 1009.58 1009.92 1010.15 1010.82 1011.69 1012.35 1012.79 1013.70 1014.52 1015.03 1015.70 1016.13 1016.84 1017.52 1017.97 1018.64 1019.36 1019.96 1020.34 1020.84 1021.28 1021.80
1010.85 1011.18 1011.85 1013.54 1013.86 1011.42 1007.84 1008.17 1008.19 1008.36 1005.78 1006.36 1007.03 1007.29 1007.97 1009.05 1009.18 1006.82 1008.07 1008.28 1008.71 1008.97 1009.20 1009.74 1010.31 1010.91 1011.49 1011.91 1012.63 1013.47 1014.11 1014.74 1015.30 1015.80 1016.33 1017.00 1017.53 1018.04 1018.83 1019.36 1020.14 1020.75 1021.48 1022.43
1010.78 1011.52 1011.70 1012.90 1012.48 1009.64 1008.38 1007.56 1007.43 1008.51 1004.76 1005.42 1005.84 1005.87 1006.78 1007.78 1006.96 1007.40 1007.44 1008.12 1008.61 1009.27 1009.82 1010.25 1010.63 1010.97 1011.10 1011.56 1012.27 1013.09 1013.82 1014.03 1014.29 1015.29 1015.99 1016.97 1017.70 1018.47 1019.08 1019.79 1020.40 1020.85 1021.28 1021.92
1008.33 1009.96 1010.89 1011.61 1011.22 1009.35 1007.96 1007.95 1007.33 1006.00 1006.14 1006.40 1006.26 1006.57 1007.19 1007.42 1007.79 1007.85 1008.19 1008.86 1009.33 1009.94 1010.50 1011.01 1011.40 1011.48 1011.76 1012.13 1012.33 1012.59 1013.00 1013.43 1014.36 1015.45 1016.24 1016.96 1017.67 1018.48 1019.03 1019.67 1020.34 1021.11 1021.64 1022.39
1007.27 1006.38 1007.62 1008.52 1007.20 1006.89 1006.93 1005.99 1006.24 1006.31 1006.80 1007.21 1007.32 1007.42 1007.78 1008.21 1008.76 1009.11 1009.51 1010.18 1010.92 1011.44 1011.76 1012.02 1012.37 1012.58 1012.64 1012.60 1012.82 1013.50 1013.98 1014.28 1014.90 1015.90 1016.80 1017.40 1018.31 1018.54 1018.98 1019.57 1020.36 1021.17 1021.73 1022.53
1006.82 1006.70 1006.96 1007.54 1006.54 1006.68 1006.79 1007.19 1007.15 1007.16 1007.70 1007.88 1008.18 1008.62 1009.00 1009.42 1009.92 1010.61 1010.98 1011.45 1011.86 1012.29 1012.53 1012.89 1013.20 1013.53 1013.75 1013.74 1013.60 1013.64 1014.11 1014.55 1015.28 1016.38 1016.97 1017.65 1018.36 1019.34 1019.41 1019.68 1020.29 1020.84 1021.48 1022.18
1006.15 1006.70 1006.59 1006.73 1007.07 1007.27 1007.16 1007.35 1007.53 1008.03 1008.27 1008.77 1009.14 1009.64 1010.12 1010.45 1011.08 1011.50 1011.99 1012.32 1012.65 1013.00 1013.17 1013.32 1013.67 1014.26 1014.92 1014.97 1014.89 1015.03 1014.90 1015.23 1015.99 1016.98 1017.55 1017.99 1018.31 1018.97 1019.88 1019.86 1019.82 1020.01 1020.33 1020.73
1006.53 1006.33 1006.61 1006.39 1006.45 1006.44 1007.10 1007.46 1007.99 1008.72 1009.41 1009.71 1010.17 1011.04 1011.56 1011.49 1011.58 1011.99 1012.79 1013.29 1013.49 1013.63 1013.83 1013.99 1014.32 1014.76 1015.25 1015.28 1015.50 1015.85 1015.68 1015.65 1016.29 1017.09 1017.84 1018.20 1018.68 1019.37 1019.75 1019.84 1020.28 1020.45 1020.62 1020.83
Wind_Speed
2 6 12 6 6 5 5 4 4 3 4 4 6 7 10 5 3 6 9 9 10 14 12 7 8 8 8 8 12 12 12 10 9 5 5 4 5 6 5 6 9 9 8 9
4 7 5 8 5 4 4 6 5 2 1 4 2 9 13 5 7 8 10 9 12 8 7 10 8 8 10 14 12 12 14 12 12 9 6 4 4 3 5 7 7 9 8 7
8 7 9 7 5 6 4 5 4 4 1 0 2 7 8 6 4 6 8 9 7 14 15 13 9 13 11 12 13 16 15 14 13 13 4 3 2 2 3 4 6 8 9 10
5 3 11 5 6 7 6 6 4 3 4 5 3 7 7 7 9 6 10 10 15 15 11 10 10 10 11 16 12 12 13 14 12 12 9 11 11 10 8 4 4 5 8 7
10 10 8 7 8 7 7 5 5 2 3 1 1 4 7 2 6 8 11 15 17 17 12 10 10 10 10 9 11 11 11 12 12 13 14 11 12 8 4 3 5 6 6 8
6 2 8 10 4 9 9 6 7 5 2 5 7 6 6 6 9 8 9 10 8 8 9 9 7 7 7 5 6 7 11 11 11 13 13 13 14 10 7 5 6 6 6 6
3 3 3 6 8 4 5 8 1 2 2 8 3 4 12 7 9 11 9 7 6 5 6 7 8 6 5 6 6 5 7 8 11 12 13 14 14 13 12 9 8 8 7 5
12 9 10 5 8 10 8 9 7 8 4 4 2 10 8 12 15 7 8 6 6 5 4 5 6 7 7 6 6 7 8 7 8 11 14 11 11 8 8 8 6 6 6 6
11 7 1 4 6 13 6 7 8 7 3 4 6 8 9 14 13 11 10 7 8 8 4 6 4 4 5 5 6 6 7 6 6 6 5 5 4 8 7 7 7 6 5 3
7 5 2 3 5 2 9 11 5 2 4 5 5 6 8 7 12 7 7 9 8 7 8 5 4 4 3 3 3 3 3 3 3 5 4 4 5 5 3 4 5 5 3 3
6 6 2 5 9 11 5 7 2 5 6 6 1 8 10 15 7 8 8 7 9 9 8 7 6 5 4 4 4 4 5 5 4 3 3 3 4 4 5 6 4 5 4 5
2 7 4 5 4 3 4 10 13 8 6 2 3 11 3 4 8 6 6 6 7 5 5 5 6 6 5 5 5 5 5 5 4 4 4 4 3 4 5 5 5 6 6 5
8 1 5 5 6 2 7 3 10 6 4 10 7 8 3 3 6 3 7 7 6 5 5 4 4 6 6 6 5 5 5 6 5 5 4 4 4 4 5 5 5 6 7 7
12 4 9 14 11 10 7 7 6 7 5 5 18 5 3 9 4 4 4 3 5 6 7 6 6 7 7 6 7 6 5 5 6 6 5 5 5 5 5 5 6 6 6 7
9 14 5 2 3 7 7 11 13 15 26 17 21 18 17 9 6 6 2 2 4 6 7 8 7 7 7 7 6 6 6 6 5 6 5 5 5 6 6 6 6 6 6 6
5 2 5 4 3 5 4 11 22 29 23 27 13 9 6 9 3 3 7 6 8 8 8 8 8 8 11 9 9 7 6 6 6 6 6 5 6 6 6 6 7 7 6 6
8 6 4 4 2 5 5 24 19 21 20 21 19 12 9 8 8 9 10 11 11 11 10 8 12 13 9 12 9 9 8 7 7 7 7 7 7 7 6 6 7 7 6 5
11 11 3 4 1 4 11 5 20 24 20 24 24 4 10 12 16 13 9 9 10 9 11 10 8 7 9 6 7 8 9 8 8 8 7 7 7 7 6 6 7 6 4 5
4 5 5 7 4 9 16 9 8 10 21 18 20 13 6 5 2 10 7 10 15 12 9 8 8 5 5 8 9 10 9 9 9 10 8 8 8 8 7 7 7 3 6 3
5 5 4 4 7 23 5 14 8 7 25 13 14 15 14 9 13 15 13 9 11 12 8 8 4 3 6 7 8 10 10 11 11 10 11 10 10 11 10 9 8 4 4 3
13 9 15 9 11 11 7 2 9 13 9 5 5 11 14 14 10 2 4 0 0 2 6 4 4 6 7 7 10 10 9 14 9 9 8 7 5 7 6 6 3 6 7 8
14 12 10 8 12 23 7 6 15 6 3 1 4 1 5 2 5 2 3 3 6 6 5 4 4 4 2 5 9 11 13 7 8 7 7 7 7 6 7 9 6 6 8 8
7 10 10 13 10 5 7 3 4 3 3 4 4 3 3 5 2 2 5 5 5 6 5 5 3 1 1 3 3 4 4 7 9 8 7 7 6 6 7 9 8 7 6 7
3 3 5 5 6 7 8 3 2 3 3 3 5 5 3 5 5 4 3 3 3 2 3 3 3 4 4 5 3 3 6 7 9 8 7 6 7 5 5 4 5 7 6 6
5 10 7 4 3 3 2 3 6 4 6 8 8 5 5 7 4 3 3 3 3 3 2 3 4 4 3 4 4 3 6 7 7 6 5 5 5 7 5 3 6 7 4 6
3 6 13 12 11 5 3 6 5 8 6 6 8 8 7 6 7 5 5 3 3 2 1 3 3 4 2 4 3 2 3 6 9 7 5 5 6 4 4 6 4 2 5 7
Wind_Direction
142 179 199 175 172 172 168 213 180 236 209 178 222 245 264 223 227 244 244 233 231 232 238 225 216 201 199 194 198 196 189 186 178 176 179 182 193 190 199 195 192 195 199 196
102 211 187 176 185 175 168 198 221 306 191 164 228 254 255 179 236 212 224 237 236 241 233 237 214 195 205 214 211 202 206 192 190 192 189 171 165 186 198 193 200 198 197 193
173 209 162 154 166 172 185 169 200 211 96 13 354 280 268 255 219 237 248 235 235 228 236 235 200 212 208 214 202 210 205 200 197 201 148 112 113 112 169 177 197 204 194 194
171 168 158 150 188 144 196 194 170 155 130 233 163 278 257 240 239 217 238 239 242 235 230 236 212 213 201 219 213 210 202 198 198 188 186 198 210 213 219 191 180 191 193 201
203 153 143 186 174 163 215 158 151 132 160 334 191 287 251 155 244 248 235 229 236 239 229 225 226 225 212 209 202 198 193 196 193 189 195 197 207 214 196 166 190 200 198 202
173 184 158 183 145 160 152 79 50 56 71 269 183 185 247 192 199 236 239 226 240 259 250 246 237 231 224 208 206 189 189 199 189 191 196 196 204 198 189 177 198 207 211 206
119 188 173 139 99 64 117 106 10 316 274 230 345 232 255 266 253 219 224 202 215 255 257 251 231 205 205 201 208 186 186 190 192 192 196 200 205 208 207 199 200 199 209 198
164 209 167 180 173 155 176 160 158 190 216 251 51 245 252 236 260 265 246 235 259 259 245 243 228 200 190 191 182 176 184 188 189 196 206 204 205 211 209 201 199 212 209 210
165 219 1 162 146 146 192 192 165 103 49 41 233 297 293 269 256 246 245 224 234 237 229 223 197 186 173 170 187 187 185 188 188 200 207 216 208 210 210 203 202 213 215 203
187 127 218 170 97 47 179 152 144 84 163 245 271 276 246 295 271 261 234 229 227 202 209 209 180 195 175 170 172 150 143 165 197 207 209 215 221 229 227 178 189 190 174 142
143 104 204 135 211 160 137 190 110 131 160 176 246 259 221 241 325 253 239 221 218 218 199 186 196 193 166 160 161 151 154 155 152 163 156 163 197 202 194 215 187 156 139 150
186 116 146 193 303 268 198 186 185 189 205 239 148 257 228 250 282 294 302 230 227 230 219 201 187 180 180 176 172 176 161 157 168 156 135 131 132 140 148 143 146 142 125 112
185 219 95 26 335 223 218 198 192 94 76 203 159 258 278 244 302 288 263 276 251 207 202 213 201 200 191 197 195 182 174 173 168 160 148 143 140 134 120 118 114 114 114 107
144 131 175 195 221 133 176 161 151 153 200 182 240 215 285 291 250 229 238 245 253 229 206 204 209 213 211 202 199 191 194 188 175 165 166 163 150 127 109 101 102 108 106 110
163 195 138 140 172 171 166 173 175 193 220 193 255 222 216 221 240 296 175 219 220 231 223 220 217 219 219 213 207 208 203 184 166 164 155 152 135 121 119 115 108 101 102 112
332 66 106 22 50 128 169 184 196 216 216 236 233 252 182 232 273 241 231 251 242 250 238 219 213 218 220 206 205 195 185 180 171 163 161 141 126 127 132 127 123 116 112 113
141 124 102 253 263 79 298 216 207 225 219 228 232 219 184 224 244 242 217 215 222 225 229 211 215 215 203 208 193 193 165 169 183 167 154 156 150 150 145 134 130 129 133 139
169 177 100 153 50 220 259 196 202 215 224 223 241 169 197 205 224 235 236 222 233 234 237 233 228 225 223 182 169 151 167 176 178 175 166 157 147 140 144 147 144 141 139 150
139 154 115 163 210 279 268 177 148 184 249 227 235 237 196 219 208 250 222 215 227 230 240 235 231 225 157 174 168 169 174 170 175 183 169 171 159 151 157 163 156 130 134 133
146 172 155 123 188 230 330 174 129 98 278 201 205 205 204 153 230 248 207 221 234 231 230 245 237 173 182 198 162 165 179 176 189 176 176 175 171 166 171 163 155 139 93 97
176 180 205 193 232 277 244 176 132 183 268 194 219 215 201 197 223 195 144 188 338 280 300 278 192 216 230 164 160 178 165 198 176 162 156 153 148 158 145 123 114 132 128 126
162 165 192 188 225 252 186 72 185 228 34 77 56 66 192 215 118 237 299 355 1 342 348 352 269 239 217 183 176 179 189 156 139 135 142 144 138 138 141 137 129 131 132 125
180 191 170 190 210 221 233 184 165 136 155 126 113 69 75 101 114 343 333 8 358 351 342 359 323 210 51 156 148 140 137 131 128 134 140 134 138 139 147 145 145 132 123 132
210 149 188 105 202 206 172 190 133 79 99 84 89 107 73 115 112 103 83 18 30 42 34 11 25 14 4 2 34 105 144 132 133 132 138 137 137 128 115 113 143 143 148 154
176 146 163 268 30 46 26 190 141 94 88 89 63 61 74 108 75 84 90 95 87 67 21 61 78 71 30 9 47 55 123 129 117 109 123 125 131 149 143 121 160 167 170 178
202 175 195 223 182 165 190 129 109 95 79 74 96 67 39 71 90 91 70 31 25 49 35 75 80 116 135 100 97 87 104 124 133 132 150 155 148 150 156 151 116 123 163 177